I41 Palomar Mountain--ZTF. Observer . Measurer S. Deen. 1.2-m Oschin
Schmidt + CCD.
K78 iota Scorpii Observatory, La Spezia. Observers G. Scarfi, P. Boongerd.
0.40-m f/6.1 reflector + CCD.
M21 Schiaparelli Southern Observatory, Hakos. Observers A. Aletti, F.
Bellini, L. Buzzi, G. Galli, M. Auteri. Measurers A. Aletti, M. Auteri.
0.36-m f/8.4 reflector + CCD.
N87 Nanshan Station, Xinjiang Observatory. Observers M. Zhang, G.-Y. Sun, X.
Gao, U. Mahmut, G.-J. Feng. Measurers M. Zhang, X. Liao, Z.-S. Yang,
W.-J. Zhou. 1.0-m f/2.2 reflector + CCD.
N89 Xingming Observatory #2, Nanshan. Observer X. Gao. Measurers W.-J. Zhou,
Z.-Y. Chen, M. Zhang, Z.-S. Yang, X. Liao. 0.50-m f/4 reflector + CCD.
Q06 Tarui Observatory, Tarui. Observer H. Watanabe. 0.35-m f/1.9 Schmidt-
Cassegrain + CMO.
Q62 iTelescope Observatory, Siding Spring. Observer H. Sato. 0.51-m f/6.8
astrograph + CCD.
T03 Haleakala-LCO Clamshell #3. Observer A. Hale. 0.35-m f/3 Cassegrain +
CCD.
T04 Haleakala-LCO OGG B #2. Observer A. Hale. 0.35-m f/3 Cassegrain + CCD.
W84 Cerro Tololo-DECam. Observer E. Savary. Measurer S. Deen. 4.0-m
reflector + CCD.
X09 Deep Random Survey, Rio Hurtado. Observers A. Schnabel, D. Ruhela.
Measurer S. Deen. 0.43-m reflector + CMOS.
Y05 SONEAR Wykrota-CEAMIG, Serra da Piedade. Observers C. Jacques, A.
Caetano, E. Pimentel. Measurer C. Jacques. 0.45-m f/2.9 reflector + CMO.
Y89 Proxima Centauri Observatory, Valdin. Observer R. Hahn. 0.36-m f/2.0
reflector + CMO.
Z17 Tenerife-LCO Aqawan A #2. Observer A. Hale. 0.35-m f/3 Cassegrain + CCD.
Orbital elements:
P/2024 FG9 (Nanshan-Hahn)
Epoch 2024 May 10.0 TT = JDT 2460440.5
T 2024 May 20.33999 TT Rudenko
q 1.5963737 (2000.0) P Q
n 0.16774574 Peri. 245.90699 -0.75375681 -0.65651784
a 3.2561299 Node 253.04463 +0.61336521 -0.68706842
e 0.5097328 Incl. 1.73115 +0.23586818 -0.31132189
P 5.88
>From 98 observations 2018 Mar. 29-2024 May 26, mean residual 0".6.
P/2024 FG9 (Nanshan-Hahn)
Epoch 2018 Mar. 23.0 TT = JDT 2458200.5
T 2018 Mar. 22.15494 TT Rudenko
q 1.7134945 (2000.0) P Q
n 0.16423042 Peri. 184.47815 -0.71791386 -0.68686853
a 3.3024302 Node 311.45964 +0.64328769 -0.59244808
e 0.4811414 Incl. 8.68676 +0.26604630 -0.42097137
P 6.00
>From 98 observations 2018 Mar. 29-2024 May 26, mean residual 0".6.
P/2024 FG9 (Nanshan-Hahn)
Epoch 2024 Mar. 31.0 TT = JDT 2460400.5
T 2024 May 20.33689 TT Rudenko
q 1.5963784 (2000.0) P Q
n 0.16773648 Peri. 245.90516 -0.75373650 -0.65654115
a 3.2562497 Node 253.04469 +0.61338645 -0.68704944
e 0.5097494 Incl. 1.73115 +0.23587781 -0.31131462
P 5.88
>From 98 observations 2018 Mar. 29-2024 May 26, mean residual 0".6.
Ephemeris:
Date TT R. A. (2000) Decl. Delta r Elong. Phase m1 m2
2024 05 02 06 29 59.6 +22 05 29 1.9518 1.6063 55.2 31.0 17.5
...
2024 05 17 07 14 39.5 +21 05 33 2.0237 1.5967 51.1 29.5 17.6
...
2024 05 25 07 38 42.6 +20 14 07 2.0641 1.5970 49.1 28.7 17.6
...
2024 05 31 07 56 43.1 +19 26 55 2.0958 1.5997 47.7 27.9 17.6
2024 06 01 07 59 42.8 +19 18 21 2.1012 1.6004 47.4 27.8 17.7
2024 06 02 08 02 42.2 +19 09 36 2.1066 1.6011 47.2 27.7 17.7
...
2024 06 08 08 20 34.9 +18 13 03 2.1400 1.6066 45.8 26.9 17.7
...
2024 06 16 08 44 09.5 +16 47 39 2.1867 1.6172 44.0 25.8 17.8
...
2024 07 01 09 27 14.2 +13 41 22 2.2814 1.6464 40.5 23.6 18.0
M. P. C. Staff (C) Copyright 2024 MPC M.P.E.C. 2024-L04
More information about the Iaude
mailing list